[Iaude] MPEC N132: 2024 ND3 [a=2.32,e=0.47,i=6.2,H=23.8]
    mpec at cfa.harvard.edu 
    mpec at cfa.harvard.edu
       
    Thu Jul 11 15:47:42 EDT 2024
    
    
  
M.P.E.C. 2024-N132                                Issued 2024 July 11, 19:45 UT
     The Minor Planet Electronic Circulars contain information on unusual
         minor planets, routine data on comets and natural satellites,
         and occasional editorial announcements.  They are published
    on behalf of Division F of the International Astronomical Union by the
          Minor Planet Center, Smithsonian Astrophysical Observatory,
                          Cambridge, MA 02138, U.S.A.
			  
             Prepared using the Tamkin Foundation Computer Network
                              MPC at CFA.HARVARD.EDU
            URL https://www.minorplanetcenter.net/    ISSN 1523-6714
                                    2024 ND3                                    
Observations:
     K24N03D* C2024 07 06.42570919 48 56.600-24 29 36.24         21.54wXEN132F52
     K24N03D  C2024 07 06.43160419 48 57.212-24 29 44.82         21.70wXEN132F52
     K24N03D  C2024 07 06.43750619 48 57.834-24 29 53.84         21.31GVEN132F52
     K24N03D  C2024 07 06.51967619 49 06.409-24 31 57.31         21.35GVEN132F51
     K24N03D  C2024 07 06.52031919 49 06.458-24 31 58.16         21.67GVEN132F51
     K24N03D KC2024 07 08.27143 19 52 36.54 -25 15 19.0          21.3 RVEN132691
     K24N03D KC2024 07 08.28101 19 52 37.53 -25 15 33.5                VEN132691
     K24N03D KC2024 07 08.29060 19 52 38.50 -25 15 48.6                VEN132691
     K24N03D KC2024 07 09.27923 19 54 33.58 -25 39 38.1                VEN132691
     K24N03D KC2024 07 09.28600 19 54 34.26 -25 39 48.1                VEN132691
     K24N03D KC2024 07 09.29277 19 54 34.95 -25 39 58.4                VEN132691
     K24N03D KC2024 07 09.57633119 55 06.607-25 46 00.12         21.2 GVEN132474
     K24N03D KC2024 07 09.58356819 55 07.306-25 46 09.88         21.1 GVEN132474
     K24N03D KC2024 07 09.59839719 55 08.878-25 46 30.72         21.5 GVEN132474
     K24N03D KC2024 07 11.59327519 58 53.710-26 32 49.45         21.9 GVEN132474
     K24N03D KC2024 07 11.60044319 58 54.439-26 32 59.24         21.3 GVEN132474
     K24N03D KC2024 07 11.60761119 58 55.147-26 33 07.49         21.1 GVEN132474
Observer details:
474 Mount John Observatory, Lake Tekapo.  Observers A. C. Gilmore, P. M.
    Kilmartin.  Measurer P. M. Kilmartin.  0.6-m f/6.3 Reflector + CCD.
691 Steward Observatory, Kitt Peak-Spacewatch.  Observer T. H. Bressi.  0.9-m
    f/3 reflector + CCD.
F51 Pan-STARRS 1, Haleakala.  Observers J. Herman, T. Lowe, P. Minguez, A.
    Schultz, I. Smith.  Measurers K. Chambers, T. de Boer, J. Fairlamb, H.
    Gao, M. Huber, C.-C. Lin, E. Magnier, Y. Ramanjooloo, R. Wainscoat, R.
    Weryk.  1.8-m Ritchey-Chretien + CCD.
F52 Pan-STARRS 2, Haleakala.  Observers J. Herman, T. Lowe, P. Minguez, A.
    Schultz, I. Smith.  Measurers K. Chambers, T. de Boer, J. Fairlamb, H.
    Gao, M. Huber, C.-C. Lin, E. Magnier, Y. Ramanjooloo, R. Wainscoat, R.
    Weryk.  1.8-m Ritchey-Chretien + CCD.
Orbital elements:
2024 ND3                                                 Earth MOID = 0.2168 AU
Epoch 2024 Mar. 31.0 TT = JDT 2460400.5                 MPC                     
M 336.73887              (2000.0)            P               Q                  
n   0.27915616     Peri.  173.40223     +0.07306014     +0.99157963             
a   2.3186645      Node   100.74902     -0.91993219     +0.10841010             
e   0.4682302      Incl.    6.24790     -0.38521032     -0.07083143             
P   3.53           H   23.80          G   0.15           U   8                  
Residuals in seconds of arc
240706 F52  0.0   0.2-    240708 691  0.0   0.5+    240709 474  0.4-  0.1+
240706 F52  0.1-  0.2+    240708 691  0.2-  0.3-    240709 474  0.4+  0.2+
240706 F52  0.0   0.2+    240709 691  0.1+  0.1+    240711 474  0.2-  0.1-
240706 F51  0.1+  0.0     240709 691  0.1+  0.0     240711 474  0.1+  0.3-
240706 F51  0.1-  0.1+    240709 691  0.1+  0.5-    240711 474  0.1+  1.0+
240708 691  0.0   0.6+    240709 474  0.2+  0.3-
Ephemeris:
2024 ND3                 a,e,i = 2.32, 0.47, 6                   q = 1.2330
Date    TT    R. A. (2000) Decl.     Delta      r    Elong.  Phase     V
2024 06 11    18 50 38.6 -13 45 55   0.2403  1.2388   156.1    19.4    22.1
...
2024 06 26    19 26 22.6 -19 54 58   0.2241  1.2336   164.2    13.0    21.8
...
2024 07 04    19 43 57.4 -23 27 13   0.2263  1.2392   168.3     9.6    21.7
...
2024 07 10    19 55 55.2 -25 56 11   0.2330  1.2471   170.5     7.7    21.7
2024 07 11    19 57 48.1 -26 19 27   0.2345  1.2487   170.8     7.5    21.7
2024 07 12    19 59 39.0 -26 42 10   0.2362  1.2504   171.0     7.3    21.7
...
2024 07 18    20 10 03.3 -28 45 44   0.2486  1.2624   171.0     7.2    21.8
...
2024 07 26    20 22 07.3 -30 51 58   0.2715  1.2829   168.6     9.0    22.1
...
2024 08 10    20 40 18.5 -32 46 21   0.3343  1.3336   160.6    14.6    22.9
A. U. Tomatic                (C) Copyright 2024 MPC           M.P.E.C. 2024-N132
    
    
More information about the Iaude
mailing list